Location: Boss Branch
(32.3799°N, 97.2508°W)
Time: 12:40:24
(UTC+00:00)

Explorer 11/Cluster Stage 4 - All Passes

Search period start: 09 November 2024 00:00
Search period end: 19 November 2024 00:00
Orbit: 464 x 1205 km, 28.8° (Epoch: 08 November)

Date Brightness Start Highest point End Pass type
(mag) Time Alt. Az. Time Alt. Az. Time Alt. Az.
09 Nov - 10:59:12 10° SSW 11:01:38 15° SSE 11:03:53 10° SE visible
09 Nov - 12:45:23 10° WSW 12:48:54 35° S 12:52:13 10° ESE daylight
09 Nov - 14:32:43 10° WSW 14:36:12 47° S 14:39:48 10° ESE daylight
09 Nov - 16:20:16 10° WSW 16:23:31 29° SSW 16:27:07 10° SE daylight
09 Nov - 18:09:37 10° SW 18:10:53 11° SSW 18:12:11 10° S daylight
10 Nov - 10:39:07 10° SSW 10:42:04 17° SSE 10:44:43 10° ESE visible
10 Nov - 12:25:42 10° WSW 12:29:24 38° S 12:32:46 10° ESE visible
10 Nov - 14:13:12 10° WSW 14:16:42 46° S 14:20:13 10° ESE daylight
10 Nov - 16:00:53 10° WSW 16:03:58 26° SSW 16:07:19 10° SE daylight
11 Nov - 10:19:01 10° SSW 10:22:27 20° SSE 10:25:30 10° ESE visible
11 Nov - 12:05:56 10° WSW 12:09:51 40° S 12:13:20 10° E visible
11 Nov - 13:53:37 10° WSW 13:57:11 46° S 14:00:39 10° ESE daylight
11 Nov - 15:41:28 10° WSW 15:44:25 24° SSW 15:47:33 10° SE daylight
12 Nov - 09:58:55 10° SSW 10:02:50 22° SSE 10:06:13 10° ESE visible
12 Nov - 11:46:07 10° WSW 11:50:17 43° S 11:53:54 10° E visible
12 Nov - 13:33:58 10° W 13:37:39 45° S 13:41:07 10° ESE daylight
12 Nov - 15:22:00 10° WSW 15:24:52 22° SSW 15:27:47 10° SE daylight
13 Nov - 09:38:48 10° SW 09:43:10 25° SSE 09:46:54 10° ESE visible
13 Nov - 11:26:15 10° WSW 11:30:42 46° S 11:34:28 10° E visible
13 Nov - 13:14:16 10° W 13:18:06 45° S 13:21:35 10° ESE daylight
13 Nov - 15:02:30 10° WSW 15:05:17 21° SSW 15:08:03 10° SSE daylight
14 Nov - 07:33:47 10° S 07:35:45 12° SSE 07:37:37 10° SE night (unlit)
14 Nov - 09:18:38 10° SW 09:23:27 28° SSE 09:27:31 10° ESE visible
14 Nov - 11:06:19 10° WSW 11:11:04 49° S 11:15:00 10° E visible
14 Nov - 12:54:30 10° W 12:58:30 45° S 13:02:03 10° ESE daylight
14 Nov - 14:42:57 10° WSW 14:45:40 19° SSW 14:48:20 10° SSE daylight
15 Nov - 07:12:52 10° S 07:15:57 14° SSE 07:18:47 10° SE night (unlit)
15 Nov - 08:58:27 10° SW 09:03:43 32° SSE 09:08:06 10° ESE visible
15 Nov - 10:46:20 10° WSW 10:51:24 52° S 10:55:32 10° E visible
15 Nov - 12:34:40 10° W 12:38:54 45° S 12:42:32 10° ESE visible
15 Nov - 14:23:20 10° WSW 14:26:02 18° SSW 14:28:38 10° SSE daylight
16 Nov - 06:52:12 10° S 06:56:06 16° SSE 06:59:37 10° ESE night (unlit)
16 Nov - 08:38:14 10° SW 08:43:55 35° SSE 08:48:38 10° E night (unlit)
16 Nov - 10:26:18 10° WSW 10:31:42 54° S 10:36:03 10° E visible
16 Nov - 12:14:47 10° W 12:19:14 45° S 12:23:01 10° ESE visible
16 Nov - 14:03:38 10° WSW 14:06:23 18° SSW 14:08:56 10° SSE daylight
17 Nov - 06:31:38 10° SSW 06:36:11 18° SSE 06:40:18 10° ESE night (unlit)
17 Nov - 08:18:00 10° SW 08:24:05 38° SSE 08:29:07 10° E night (unlit)
17 Nov - 10:06:13 10° WSW 10:11:57 57° S 10:16:32 10° E visible
17 Nov - 11:54:50 10° W 11:59:33 46° SSW 12:03:29 10° ESE visible
17 Nov - 13:43:53 10° WSW 13:46:41 17° SSW 13:49:16 10° SSE daylight
18 Nov - 06:11:08 10° SSW 06:16:14 20° SSE 06:20:51 10° ESE night (unlit)
18 Nov - 07:57:46 10° SW 08:04:13 41° SSE 08:09:33 10° E night (unlit)
18 Nov - 09:46:06 10° WSW 09:52:09 59° S 09:57:00 10° E visible
18 Nov - 11:34:49 10° W 11:39:50 46° SSW 11:43:56 10° ESE visible
18 Nov - 13:24:04 10° WSW 13:26:57 17° SSW 13:29:36 10° SSE daylight
